TimeCST,TemperatureF,Dew PointF,Humidity,Sea Level PressureIn,VisibilityMPH,Wind Direction,Wind SpeedMPH,Gust SpeedMPH,PrecipitationIn,Events,Conditions,WindDirDegrees,DateUTC
12:53 AM,-9.0,-18.9,62,30.32,9.0,South,8.1,-,N/A,,Clear,180,2014-01-03 06:53:00
1:53 AM,-8.0,-17.0,65,30.29,9.0,South,8.1,-,N/A,,Mostly Cloudy,180,2014-01-03 07:53:00
2:53 AM,-5.1,-16.1,59,30.24,10.0,South,10.4,-,N/A,,Overcast,170,2014-01-03 08:53:00
3:53 AM,-2.0,-14.1,57,30.18,10.0,South,11.5,-,N/A,,Overcast,170,2014-01-03 09:53:00
4:53 AM,1.0,-11.9,55,30.12,10.0,SSE,13.8,-,N/A,,Overcast,160,2014-01-03 10:53:00
5:53 AM,1.9,-11.0,55,30.06,10.0,SSE,12.7,21.9,N/A,,Overcast,160,2014-01-03 11:53:00
6:53 AM,3.9,-9.0,55,29.99,9.0,South,18.4,25.3,N/A,,Overcast,170,2014-01-03 12:53:00
7:17 AM,5.0,-7.6,56,29.86,10.0,South,16.1,24.2,N/A,,Overcast,170,2014-01-03 13:17:00
7:53 AM,3.9,-9.0,55,29.94,10.0,South,17.3,26.5,N/A,,Overcast,170,2014-01-03 13:53:00
8:53 AM,3.9,-8.0,58,29.89,6.0,South,18.4,27.6,N/A,,Haze,170,2014-01-03 14:53:00
9:40 AM,6.8,-4.0,61,29.72,2.5,South,20.7,31.1,0.00,Snow,Light Snow,170,2014-01-03 15:40:00
9:53 AM,7.0,-4.0,61,29.83,2.5,South,21.9,28.8,0.00,Snow,Light Snow,180,2014-01-03 15:53:00
10:53 AM,9.0,-0.0,67,29.78,2.5,South,20.7,29.9,0.00,,Haze,180,2014-01-03 16:53:00
11:04 AM,10.4,-0.4,62,29.66,4.0,South,18.4,28.8,N/A,,Haze,190,2014-01-03 17:04:00
11:53 AM,12.0,1.9,64,29.70,4.0,South,23.0,31.1,N/A,,Haze,190,2014-01-03 17:53:00
12:53 PM,14.0,3.9,64,29.65,4.0,South,13.8,23.0,N/A,,Haze,180,2014-01-03 18:53:00
1:39 PM,15.8,5.0,62,29.52,2.5,South,15.0,-,0.00,Snow,Light Snow,180,2014-01-03 19:39:00
1:53 PM,16.0,6.1,65,29.60,2.5,South,16.1,-,0.00,Snow,Light Snow,180,2014-01-03 19:53:00
2:24 PM,15.8,6.8,68,29.49,3.0,South,17.3,-,0.00,Snow,Light Snow,180,2014-01-03 20:24:00
2:53 PM,16.0,7.0,68,29.56,3.0,South,16.1,23.0,0.00,Snow,Light Snow,170,2014-01-03 20:53:00
3:09 PM,17.6,6.8,63,29.46,2.5,South,16.1,26.5,0.00,Snow,Light Snow,170,2014-01-03 21:09:00
3:20 PM,17.6,6.8,63,29.45,1.8,South,16.1,23.0,0.00,Snow,Light Snow,170,2014-01-03 21:20:00
3:30 PM,17.6,8.6,68,29.45,2.0,South,17.3,27.6,0.00,Snow,Light Snow,170,2014-01-03 21:30:00
3:49 PM,17.6,8.6,68,29.43,4.0,South,17.3,24.2,0.00,,Overcast,170,2014-01-03 21:49:00
3:53 PM,17.1,8.1,68,29.52,4.0,South,18.4,28.8,0.00,,Overcast,170,2014-01-03 21:53:00
4:33 PM,17.6,8.6,68,29.44,4.0,SSW,17.3,28.8,0.00,,Haze,200,2014-01-03 22:33:00
4:53 PM,18.0,10.0,71,29.50,5.0,South,18.4,25.3,0.00,,Haze,180,2014-01-03 22:53:00
5:18 PM,19.4,10.4,68,29.41,5.0,South,13.8,-,N/A,,Haze,180,2014-01-03 23:18:00
5:53 PM,19.9,10.9,68,29.49,4.0,South,16.1,-,N/A,,Haze,190,2014-01-03 23:53:00
6:53 PM,21.0,12.9,71,29.46,7.0,South,12.7,-,N/A,,Overcast,190,2014-01-04 00:53:00
7:34 PM,21.2,14.0,74,29.36,5.0,South,16.1,-,N/A,,Haze,180,2014-01-04 01:34:00
7:53 PM,23.0,15.1,72,29.44,6.0,South,12.7,21.9,N/A,,Haze,190,2014-01-04 01:53:00
8:53 PM,24.1,17.1,75,29.40,5.0,South,13.8,-,0.00,,Overcast,180,2014-01-04 02:53:00
9:41 PM,26.6,17.6,69,29.33,5.0,SSW,11.5,-,0.00,,Haze,200,2014-01-04 03:41:00
9:53 PM,26.1,19.0,75,29.40,6.0,SSW,11.5,-,0.00,,Haze,200,2014-01-04 03:53:00
10:50 PM,28.4,21.2,74,29.33,2.5,SSW,12.7,-,0.00,Rain,Light Freezing Rain,210,2014-01-04 04:50:00
10:53 PM,28.0,21.0,75,29.40,2.0,SSW,12.7,-,0.00,Snow,Light Snow,200,2014-01-04 04:53:00
10:57 PM,28.4,21.2,74,29.33,1.8,SSW,10.4,-,0.01,Snow,Light Snow,200,2014-01-04 04:57:00
11:10 PM,28.4,21.2,74,29.33,2.5,SSW,9.2,-,0.01,Snow,Light Snow,210,2014-01-04 05:10:00
11:18 PM,28.4,21.2,74,29.33,4.0,SW,9.2,-,0.01,,Haze,220,2014-01-04 05:18:00
11:53 PM,28.9,21.9,75,29.39,4.0,SW,4.6,-,0.01,,Haze,230,2014-01-04 05:53:00